• în România
  • Lista ţărilor
  • Pe 7 zile
  • Temperatura apei
  • Hartă satelitară
  • Meteo pe hartă
  • Widget-uri
  • user-avatar
    Intrare

    Meteo pe oră la Mayrhofen

    Astăzi, 28 Februarie, Marţi

    Timp Temperatura Precipitaţii Vânt Presiune Umiditate
    00:00 -6°C° 0 mm 3 m/s 608 mmHg 94%
    01:00 -6°C° 0 mm 3 m/s 607 mmHg 94%
    02:00 -6°C° 0 mm 3 m/s 607 mmHg 93%
    03:00 -5°C° 0 mm 3 m/s 606 mmHg 93%
    04:00 -5°C° 0 mm 3 m/s 605 mmHg 93%
    05:00 -5°C° 0,1 mm 3 m/s 605 mmHg 94%
    06:00 -5°C° 0,1 mm 3 m/s 605 mmHg 94%
    07:00 -5°C° 0,1 mm 3 m/s 605 mmHg 95%
    08:00 -4°C° 0,4 mm 3 m/s 605 mmHg 95%
    09:00 -2°C° 0,4 mm 2 m/s 606 mmHg 94%
    10:00 -2°C° 0,4 mm 2 m/s 606 mmHg 94%
    11:00 -1°C° 1 mm 2 m/s 606 mmHg 95%
    12:00 -1°C° 1 mm 3 m/s 605 mmHg 95%
    13:00 -1°C° 1 mm 3 m/s 605 mmHg 95%
    14:00 -1°C° 0,9 mm 3 m/s 604 mmHg 95%
    15:00 -1°C° 0,9 mm 3 m/s 603 mmHg 96%
    16:00 -1°C° 0,9 mm 2 m/s 602 mmHg 96%
    17:00 -2°C° 1 mm 2 m/s 602 mmHg 96%
    18:00 -2°C° 1 mm 2 m/s 602 mmHg 96%
    19:00 -3°C° 1 mm 2 m/s 602 mmHg 97%
    20:00 -3°C° 1,5 mm 2 m/s 602 mmHg 97%
    21:00 -4°C° 1,5 mm 2 m/s 602 mmHg 97%
    22:00 -5°C° 1,5 mm 2 m/s 603 mmHg 98%
    23:00 -5°C° 1,5 mm 2 m/s 603 mmHg 97%

    Mâine, 1 Martie, Miercuri

    Timp Temperatura Precipitaţii Vânt Presiune Umiditate
    00:00 -6°C° 1,5 mm 2 m/s 603 mmHg 97%
    01:00 -7°C° 1,5 mm 2 m/s 603 mmHg 97%
    02:00 -7°C° 0,6 mm 2 m/s 604 mmHg 97%
    03:00 -7°C° 0,6 mm 2 m/s 604 mmHg 97%
    04:00 -8°C° 0,6 mm 2 m/s 604 mmHg 97%
    05:00 -8°C° 0 mm 2 m/s 604 mmHg 96%
    06:00 -9°C° 0 mm 2 m/s 605 mmHg 96%
    07:00 -9°C° 0 mm 2 m/s 605 mmHg 95%
    08:00 -8°C° 0 mm 2 m/s 606 mmHg 93%
    09:00 -6°C° 0 mm 2 m/s 607 mmHg 91%
    10:00 -3°C° 0 mm 1 m/s 608 mmHg 90%
    11:00 -4°C° 0,1 mm 2 m/s 608 mmHg 89%
    12:00 -4°C° 0,1 mm 2 m/s 609 mmHg 88%
    13:00 -3°C° 0,1 mm 2 m/s 609 mmHg 88%
    14:00 -3°C° 0,1 mm 2 m/s 609 mmHg 89%
    15:00 -1°C° 0,1 mm 1 m/s 610 mmHg 89%
    16:00 -1°C° 0,1 mm 1 m/s 610 mmHg 90%
    17:00 -4°C° 0 mm 1 m/s 609 mmHg 91%
    18:00 -9°C° 0 mm 1 m/s 608 mmHg 92%
    19:00 -12°C° 0 mm 1 m/s 607 mmHg 93%
    20:00 -12°C° 0 mm 2 m/s 608 mmHg 92%
    21:00 -10°C° 0 mm 2 m/s 609 mmHg 92%
    22:00 -8°C° 0 mm 2 m/s 610 mmHg 91%
    23:00 -8°C° 0,1 mm 2 m/s 610 mmHg 90%

    Poimâine, 2 Martie, Joi

    Timp Temperatura Precipitaţii Vânt Presiune Umiditate
    00:00 -7°C° 0,1 mm 2 m/s 610 mmHg 90%
    01:00 -8°C° 0,1 mm 3 m/s 611 mmHg 90%
    02:00 -7°C° 0 mm 2 m/s 610 mmHg 90%
    03:00 -7°C° 0 mm 2 m/s 610 mmHg 91%
    04:00 -8°C° 0 mm 2 m/s 610 mmHg 91%
    05:00 -7°C° 0 mm 2 m/s 610 mmHg 91%
    06:00 -7°C° 0 mm 2 m/s 610 mmHg 91%
    07:00 -7°C° 0 mm 2 m/s 610 mmHg 92%
    08:00 -5°C° 0,2 mm 2 m/s 612 mmHg 92%
    09:00 -1°C° 0,2 mm 1 m/s 613 mmHg 92%
    10:00 +1°C° 0,2 mm 1 m/s 614 mmHg 93%
    11:00 +1°C° 0,2 mm 1 m/s 614 mmHg 94%
    12:00 +2°C° 0,2 mm 1 m/s 615 mmHg 94%
    13:00 +2°C° 0,2 mm 1 m/s 615 mmHg 95%
    14:00 +2°C° 0,2 mm 1 m/s 615 mmHg 96%
    15:00 +2°C° 0,2 mm 1 m/s 615 mmHg 96%
    16:00 +2°C° 0,2 mm 1 m/s 615 mmHg 96%
    17:00 0°C° 0,1 mm 1 m/s 614 mmHg 97%
    18:00 -2°C° 0,1 mm 1 m/s 613 mmHg 97%
    19:00 -4°C° 0,1 mm 1 m/s 613 mmHg 98%
    20:00 -4°C° 0 mm 1 m/s 613 mmHg 97%
    21:00 -5°C° 0 mm 2 m/s 614 mmHg 97%
    22:00 -5°C° 0 mm 2 m/s 614 mmHg 96%
    23:00 -5°C° 0 mm 2 m/s 614 mmHg 96%

    3 Martie, Vineri

    Timp Temperatura Precipitaţii Vânt Presiune Umiditate
    00:00 -5°C° 0 mm 2 m/s 614 mmHg 96%
    01:00 -5°C° 0 mm 2 m/s 614 mmHg 96%
    02:00 -5°C° 0 mm 2 m/s 613 mmHg 96%
    03:00 -5°C° 0 mm 2 m/s 613 mmHg 96%
    04:00 -6°C° 0 mm 3 m/s 613 mmHg 96%
    05:00 -6°C° 0 mm 3 m/s 612 mmHg 95%
    06:00 -6°C° 0 mm 3 m/s 612 mmHg 95%
    07:00 -5°C° 0 mm 3 m/s 612 mmHg 95%
    08:00 -4°C° 0 mm 3 m/s 612 mmHg 95%
    09:00 -2°C° 0 mm 3 m/s 612 mmHg 95%
    10:00 -1°C° 0 mm 3 m/s 612 mmHg 95%
    11:00 0°C° 0 mm 3 m/s 612 mmHg 95%
    12:00 0°C° 0 mm 3 m/s 612 mmHg 95%
    13:00 +1°C° 0 mm 3 m/s 612 mmHg 95%
    14:00 +1°C° 0 mm 3 m/s 611 mmHg 95%
    15:00 +1°C° 0 mm 3 m/s 610 mmHg 95%
    16:00 +1°C° 0 mm 3 m/s 610 mmHg 95%
    17:00 0°C° 0,1 mm 3 m/s 609 mmHg 95%
    18:00 -1°C° 0,1 mm 3 m/s 609 mmHg 95%
    19:00 -2°C° 0,1 mm 3 m/s 608 mmHg 95%
    20:00 -2°C° 0,1 mm 3 m/s 608 mmHg 95%
    21:00 -2°C° 0,1 mm 3 m/s 608 mmHg 95%
    22:00 -2°C° 0,1 mm 3 m/s 607 mmHg 95%
    23:00 -2°C° 0,1 mm 3 m/s 607 mmHg 95%

    4 Martie, Sâmbătă

    Timp Temperatura Precipitaţii Vânt Presiune Umiditate
    00:00 -2°C° 0,1 mm 3 m/s 607 mmHg 95%
    01:00 -2°C° 0,1 mm 3 m/s 606 mmHg 95%
    02:00 -2°C° 0,1 mm 3 m/s 606 mmHg 95%
    03:00 -4°C° 0,1 mm 3 m/s 606 mmHg 95%
    04:00 -4°C° 0,1 mm 3 m/s 605 mmHg 95%
    05:00 -4°C° 0,4 mm 3 m/s 605 mmHg 96%
    06:00 -4°C° 0,4 mm 3 m/s 605 mmHg 96%
    07:00 -4°C° 0,4 mm 2 m/s 606 mmHg 96%
    08:00 -3°C° 0,7 mm 2 m/s 606 mmHg 96%
    09:00 -2°C° 0,7 mm 2 m/s 607 mmHg 95%
    10:00 -1°C° 0,7 mm 2 m/s 607 mmHg 95%
    11:00 -1°C° 0,9 mm 2 m/s 608 mmHg 95%
    12:00 -1°C° 0,9 mm 2 m/s 608 mmHg 95%
    13:00 -1°C° 0,9 mm 2 m/s 608 mmHg 95%
    14:00 -1°C° 0,2 mm 2 m/s 609 mmHg 94%
    15:00 -1°C° 0,2 mm 2 m/s 609 mmHg 94%
    16:00 -1°C° 0,2 mm 2 m/s 609 mmHg 94%
    17:00 -2°C° 0,1 mm 2 m/s 609 mmHg 95%
    18:00 -3°C° 0,1 mm 2 m/s 609 mmHg 96%
    19:00 -4°C° 0,1 mm 2 m/s 608 mmHg 96%
    20:00 -4°C° 0,1 mm 2 m/s 609 mmHg 96%
    21:00 -4°C° 0,1 mm 2 m/s 609 mmHg 96%
    22:00 -4°C° 0,1 mm 2 m/s 609 mmHg 96%
    23:00 -4°C° 0,1 mm 2 m/s 609 mmHg 96%

    5 Martie, Duminică

    Timp Temperatura Precipitaţii Vânt Presiune Umiditate
    00:00 -4°C° 0,1 mm 2 m/s 609 mmHg 95%
    01:00 -4°C° 0,1 mm 2 m/s 609 mmHg 95%
    02:00 -4°C° 0,1 mm 2 m/s 609 mmHg 95%
    03:00 -5°C° 0,1 mm 2 m/s 609 mmHg 95%
    04:00 -5°C° 0,1 mm 2 m/s 609 mmHg 95%
    05:00 -5°C° 0,1 mm 2 m/s 609 mmHg 95%
    06:00 -5°C° 0,1 mm 2 m/s 609 mmHg 95%
    07:00 -5°C° 0,1 mm 2 m/s 609 mmHg 95%
    08:00 -4°C° 0,2 mm 2 m/s 610 mmHg 94%
    09:00 -2°C° 0,2 mm 2 m/s 610 mmHg 94%
    10:00 -1°C° 0,2 mm 2 m/s 610 mmHg 93%
    11:00 -1°C° 0,7 mm 2 m/s 610 mmHg 94%
    12:00 -1°C° 0,7 mm 2 m/s 610 mmHg 94%
    13:00 +1°C° 0,7 mm 2 m/s 610 mmHg 94%
    14:00 +1°C° 0,9 mm 2 m/s 610 mmHg 95%
    15:00 -1°C° 0,9 mm 2 m/s 610 mmHg 95%
    16:00 -1°C° 0,9 mm 2 m/s 610 mmHg 96%
    17:00 -1°C° 0,6 mm 2 m/s 609 mmHg 96%
    18:00 -2°C° 0,6 mm 2 m/s 609 mmHg 97%
    19:00 -3°C° 0,6 mm 2 m/s 609 mmHg 97%
    20:00 -3°C° 0,1 mm 2 m/s 609 mmHg 97%
    21:00 -3°C° 0,1 mm 2 m/s 608 mmHg 97%
    22:00 -3°C° 0,1 mm 2 m/s 608 mmHg 97%
    23:00 -3°C° 0,1 mm 2 m/s 608 mmHg 97%
    Arată mai mult